OBJECT BE, 68468

Orbit data source: Space-Track

You're viewing an Uncataloged Satellite

Recently launched and/or uncataloged satellites may have evolving metadata. Metadata may include but not limited to: Owner, Maufacturer, Bus, Motor, and Mission.

OBJECT BE, 68468 is a satellite in SSO that was launched on Mon, 30 Mar 2026 UTC via an FALCON 9 launch vehicle from the Air Force Western Test Range (AFWTR). Unknown objects in Earth's orbit typically refer to objects detected orbiting the Earth but have not yet been identified or cataloged. These objects could be anything from previously untracked satellites, spent rocket stages, debris from satellite collisions, or even natural meteoroids temporarily captured by Earth's gravity.

Loading next visibility...
Identifier
68468, 2026-067BE
Orbit
SSO
Country
Flag of TBDTBD
Related business
None
Manufacturer
Unknown
Mission
Operational spacecraft
Bus & Motor
Unknown
Mass
Unknown
Launch date (UTC)
2026-03-30 (1 month ago)
Launch vehicle
FALCON 9
Launch site
Air Force Western Test Range (AFWTR)
Object type
Unknown
Shape & HBR
Unknown shape, 1.1 m
Radar Cross Section
RCS unknown

Expand to show TLE details & history
Last TLE update: 14 hours ago

TLE from 14 hours ago
0 OBJECT BE
1 68468U 26067BE  26127.10590528  .00007473  00000-0  38074-3 0  9997
2 68468  97.4536  86.1186 0006466 181.5240 178.5974 15.17048694  5709
Epoch: 2026-05-07T02:32Z
TLE epoch observation values (Epoch: 2026-05-07T02:32:30.216Z)
Latitude
-0.00009°
Longitude
-176.9641°
Altitude
522.307 km
Speed
7.6 km/s
True Right ascension
05h 44m 28s
True Declination
0° 00' 00"
Sunlit
Object was in daylight at epoch
Visualization orbit readout
Latitude
Unknown
Longitude
Unknown
Altitude
Unknown
Speed
Unknown
Apparent Right ascension
Unknown
Apparent Declination
Unknown
Sunlit
N/A
Visualization observer readout
Local Sidereal Time
00:08:55
Azimuth
Unknown
Elevation
Unknown
Doppler factor
Unknown
Orbital elements
Apogee altitude
516.193 km
Perigee altitude
507.283 km
Semi-major axis
6,889.875 km
Eccentricity
0.00065
Inclination
97.4536°
RAAN
86.1186°
Arg. of periapsis
181.524°
True anomaly
178.59921°
Mean anomaly
178.5974°
Eccentric anomaly
178.59831°
Mean motion
3.79513 °/min
Orbital period
94.86 mins
BSTAR
0.00038074
Loading maneuver chart data...
Computing Atmospheric mass density...
Loading historical data...
Loading historical data...
Loading historical data...
Loading historical data...
Loading historical data...
Loading historical data...
Loading historical data...

Documentation

Showing up to 5 results
|